Location: Miles
(41.4492°N, 81.6087°W)
Time: 11:02:23
(UTC+00:00)

Courier 1B - Pass Details

Date: 18 September 2024
Orbit: 962 x 1208 km, 28.3° (Epoch: 10 October)

Event Time Altitude Azimuth Distance (km) Brightness Sun altitude
Rises 17:38:47 0° 220° (SW) 3,739 11.1 49.8°
Reaches altitude 10° 17:42:16 10° 203° (SSW) 2,832 10.8 49.7°
Maximum altitude 17:46:53 19° 161° (SSE) 2,299 10.4 49.6°
Drops below altitude 10° 17:51:40 10° 119° (ESE) 2,960 10.3 49.4°
Sets 17:55:24 0° 102° (ESE) 3,969 10.7 49.2°
